Torna al catalogo

STARLINK-37347

AttivoComunicazioniSSO
NORAD 68746·PAYLOAD·🇺🇸 United States

Lanciato Apr 15, 2026 da Vandenberg Space Force Base

Loading…

Prossimi Passaggi (prossime 24 ore)

TLE

AggiornatoSource: CelesTrak SupGP

Epoca: Sep 15, 2026, 04:16 UTC

1 68746C 26082U   26258.17826389 -.00028115  00000+0 -87263-3 0  2581
2 68746  97.2844 120.4146 0002081  94.5139 157.0481 15.33457313    19

Traccia STARLINK-37347 in tempo reale con AllMySat

Download on the App Store